| time (UTC) | temp F | wind direction | speed knots | gust knots | rain 1hr in | rain 24hr in | rain mn in | humidity % | barometer mb |
| 20260505080006 | 55 | 192 | 1.7 | 4.3 | 0.00 | 0.00 | 0.00 | 82 | 1014.7 |
| 20260505075505 | 55 | 78 | 0.9 | 5.2 | 0.00 | 0.00 | 0.00 | 81 | 1014.6 |
| 20260505075005 | 55 | 202 | 1.7 | 5.2 | 0.00 | 0.00 | 0.00 | 81 | 1014.5 |
| 20260505074505 | 55 | 238 | 0.9 | 5.2 | 0.00 | 0.00 | 0.00 | 82 | 1014.5 |
| 20260505074005 | 55 | 51 | 1.7 | 7.0 | 0.00 | 0.00 | 0.00 | 82 | 1014.3 |
| 20260505073505 | 55 | 247 | 1.7 | 7.0 | 0.00 | 0.00 | 0.00 | 82 | 1014.4 |
| 20260505073005 | 55 | 223 | 0.9 | 2.6 | 0.00 | 0.00 | 0.00 | 82 | 1014.3 |
| 20260505072505 | 55 | 243 | 0.9 | 2.6 | 0.00 | 0.00 | 0.00 | 82 | 1014.3 |
| 20260505072005 | 55 | 260 | 0.9 | 2.6 | 0.00 | 0.00 | 0.00 | 82 | 1014.3 |
| 20260505071505 | 55 | 225 | 0.9 | 2.6 | 0.00 | 0.00 | 0.00 | 82 | 1014.3 |
| 20260505071005 | 55 | 246 | 0.9 | 6.1 | 0.00 | 0.00 | 0.00 | 82 | 1014.3 |
| 20260505070506 | 55 | 215 | 0.9 | 6.1 | 0.00 | 0.00 | 0.00 | 82 | 1014.2 |
| 20260505070005 | 55 | 246 | 1.7 | 6.1 | 0.00 | 0.00 | 0.00 | 82 | 1014.1 |
| 20260505065505 | 55 | 213 | 0.9 | 6.1 | 0.00 | 0.00 | 0.00 | 82 | 1014.1 |
| 20260505065005 | 55 | 251 | 0.9 | 7.8 | 0.00 | 0.00 | 0.00 | 82 | 1014.1 |
| 20260505064505 | 55 | 270 | 1.7 | 7.8 | 0.00 | 0.00 | 0.00 | 82 | 1014.1 |
| 20260505064005 | 55 | 239 | 1.7 | 5.2 | 0.00 | 0.00 | 0.00 | 82 | 1014.1 |
| 20260505063506 | 55 | 201 | 1.7 | 2.6 | 0.00 | 0.00 | 0.00 | 83 | 1014.1 |
| 20260505063005 | 55 | 238 | 0.9 | 6.1 | 0.00 | 0.00 | 0.00 | 83 | 1014.1 |
| 20260505062505 | 55 | 249 | 0.9 | 6.1 | 0.00 | 0.00 | 0.00 | 83 | 1014.1 |
| 20260505062005 | 55 | 202 | 1.7 | 6.1 | 0.00 | 0.00 | 0.00 | 83 | 1014.1 |
| 20260505061505 | 55 | 253 | 1.7 | 6.1 | 0.00 | 0.00 | 0.00 | 82 | 1014.0 |
| 20260505061006 | 55 | 243 | 2.6 | 6.1 | 0.00 | 0.00 | 0.00 | 82 | 1014.0 |
| 20260505060505 | 55 | 232 | 1.7 | 8.7 | 0.00 | 0.00 | 0.00 | 83 | 1014.0 |
| 20260505060006 | 55 | 194 | 2.6 | 8.7 | 0.00 | 0.00 | 0.00 | 83 | 1013.9 |
| 20260505055505 | 56 | 131 | 2.6 | 7.8 | 0.00 | 0.00 | 0.00 | 83 | 1013.8 |
| 20260505055005 | 56 | 250 | 0.9 | 4.3 | 0.00 | 0.00 | 0.00 | 83 | 1013.7 |
| 20260505054506 | 56 | 201 | 0.9 | 4.3 | 0.00 | 0.00 | 0.00 | 83 | 1013.7 |
| 20260505054005 | 56 | 204 | 1.7 | 5.2 | 0.00 | 0.00 | 0.00 | 83 | 1013.6 |
| 20260505053506 | 56 | 262 | 1.7 | 7.8 | 0.00 | 0.00 | 0.00 | 83 | 1013.5 |
| 20260505053006 | 56 | 246 | 1.7 | 7.8 | 0.00 | 0.00 | 0.00 | 83 | 1013.6 |
| 20260505052505 | 56 | 212 | 1.7 | 7.0 | 0.00 | 0.00 | 0.00 | 83 | 1013.6 |
| 20260505052005 | 56 | 211 | 1.7 | 7.0 | 0.00 | 0.00 | 0.00 | 82 | 1013.6 |
| 20260505051505 | 56 | 245 | 2.6 | 6.1 | 0.00 | 0.00 | 0.00 | 83 | 1013.5 |
| 20260505051006 | 56 | 120 | 0.9 | 2.6 | 0.00 | 0.00 | 0.00 | 83 | 1013.6 |
| 20260505050505 | 56 | 186 | 0.9 | 7.8 | 0.00 | 0.00 | 0.00 | 83 | 1013.5 |
| 20260505041506 | 56 | 193 | 1.7 | 6.1 | 0.00 | 0.00 | 0.00 | 81 | 1013.3 |
| 20260505041005 | 56 | 220 | 1.7 | 6.1 | 0.00 | 0.00 | 0.00 | 81 | 1013.2 |
| 20260505040505 | 56 | 250 | 1.7 | 10.4 | 0.00 | 0.00 | 0.00 | 81 | 1013.0 |
| 20260505040005 | 56 | 210 | 1.7 | 10.4 | 0.00 | 0.00 | 0.00 | 81 | 1013.0 |
| 20260505035505 | 56 | 206 | 2.6 | 10.4 | 0.00 | 0.00 | 0.00 | 81 | 1012.9 |
| 20260505035005 | 56 | 234 | 1.7 | 8.7 | 0.00 | 0.00 | 0.00 | 80 | 1012.8 |
| 20260505034505 | 56 | 212 | 1.7 | 8.7 | 0.00 | 0.00 | 0.00 | 80 | 1012.6 |
| 20260505034005 | 56 | 185 | 1.7 | 8.7 | 0.00 | 0.00 | 0.00 | 80 | 1012.6 |
| 20260505033505 | 57 | 235 | 2.6 | 7.8 | 0.00 | 0.00 | 0.00 | 80 | 1012.6 |
| 20260505033005 | 57 | 238 | 2.6 | 7.8 | 0.00 | 0.00 | 0.00 | 80 | 1012.5 |
| 20260505032504 | 57 | 277 | 1.7 | 7.8 | 0.00 | 0.00 | 0.00 | 79 | 1012.5 |
| 20260505032005 | 57 | 210 | 1.7 | 7.0 | 0.00 | 0.00 | 0.00 | 79 | 1012.5 |
| 20260505031504 | 57 | 290 | 1.7 | 7.0 | 0.00 | 0.00 | 0.00 | 79 | 1012.3 |
| 20260505031005 | 58 | 204 | 1.7 | 7.8 | 0.00 | 0.00 | 0.00 | 78 | 1012.3 |
| 20260505030504 | 58 | 212 | 1.7 | 8.7 | 0.00 | 0.00 | 0.00 | 78 | 1012.2 |
| 20260505030004 | 58 | 178 | 1.7 | 8.7 | 0.00 | 0.00 | 0.00 | 77 | 1012.2 |
| 20260505025505 | 58 | 129 | 0.9 | 11.3 | 0.00 | 0.00 | 0.00 | 76 | 1012.0 |
| 20260505025005 | 59 | 203 | 2.6 | 11.3 | 0.00 | 0.00 | 0.00 | 76 | 1011.9 |
| 20260505024505 | 59 | 211 | 1.7 | 11.3 | 0.00 | 0.00 | 0.00 | 75 | 1011.9 |
| 20260505024006 | 60 | 231 | 2.6 | 10.4 | 0.00 | 0.00 | 0.00 | 75 | 1011.9 |
| 20260505023506 | 60 | 10 | 1.7 | 5.2 | 0.00 | 0.00 | 0.00 | 74 | 1011.9 |
| 20260505023006 | 60 | 234 | 1.7 | 4.3 | 0.00 | 0.00 | 0.00 | 73 | 1011.8 |
| 20260505022505 | 61 | 264 | 0.9 | 5.2 | 0.00 | 0.00 | 0.00 | 73 | 1011.8 |
| 20260505022005 | 61 | 226 | 1.7 | 7.8 | 0.00 | 0.00 | 0.00 | 72 | 1011.8 |
| 20260505021505 | 62 | 225 | 2.6 | 7.8 | 0.00 | 0.00 | 0.00 | 71 | 1011.7 |
| 20260505021005 | 62 | 212 | 0.9 | 5.2 | 0.00 | 0.00 | 0.00 | 70 | 1011.8 |
| 20260505020505 | 63 | 245 | 1.7 | 8.7 | 0.00 | 0.00 | 0.00 | 69 | 1011.7 |
| 20260505020005 | 63 | 267 | 1.7 | 8.7 | 0.00 | 0.00 | 0.00 | 69 | 1011.7 |
| 20260505005505 | 68 | 245 | 1.7 | 8.7 | 0.00 | 0.00 | 0.00 | 63 | 1011.5 |
| 20260505005005 | 69 | 228 | 3.5 | 8.7 | 0.00 | 0.00 | 0.00 | 63 | 1011.5 |
| 20260505004505 | 69 | 182 | 1.7 | 7.8 | 0.00 | 0.00 | 0.00 | 62 | 1011.7 |
| 20260505004006 | 69 | 233 | 1.7 | 7.8 | 0.00 | 0.00 | 0.00 | 62 | 1011.6 |
| 20260505003505 | 69 | 242 | 1.7 | 7.0 | 0.00 | 0.00 | 0.00 | 61 | 1011.6 |
| 20260505003005 | 70 | 226 | 2.6 | 10.4 | 0.00 | 0.00 | 0.00 | 60 | 1011.5 |
| 20260505002505 | 70 | 219 | 2.6 | 10.4 | 0.00 | 0.00 | 0.00 | 60 | 1011.6 |
| 20260505002005 | 70 | 221 | 1.7 | 8.7 | 0.00 | 0.00 | 0.00 | 61 | 1011.5 |
| 20260505001505 | 71 | 252 | 1.7 | 8.7 | 0.00 | 0.00 | 0.00 | 61 | 1011.5 |
| 20260505001005 | 71 | 212 | 0.9 | 7.0 | 0.00 | 0.00 | 0.00 | 60 | 1011.3 |
| 20260505000507 | 71 | 215 | 1.7 | 10.4 | 0.00 | 0.00 | 0.00 | 59 | 1011.4 |
| 20260505000006 | 72 | 213 | 1.7 | 10.4 | 0.00 | 0.00 | 0.00 | 58 | 1011.5 |
| 20260504235507 | 72 | 214 | 1.7 | 10.4 | 0.00 | 0.00 | 0.00 | 56 | 1011.5 |
| 20260504225007 | 75 | 228 | 2.6 | 7.0 | 0.00 | 0.00 | 0.00 | 56 | 1011.4 |
| 20260504224507 | 75 | 233 | 2.6 | 7.0 | 0.00 | 0.00 | 0.00 | 56 | 1011.3 |
| 20260504224006 | 76 | 222 | 1.7 | 10.4 | 0.00 | 0.00 | 0.00 | 56 | 1011.4 |
| 20260504223507 | 75 | 54 | 0.9 | 10.4 | 0.00 | 0.00 | 0.00 | 57 | 1011.5 |
| 20260504223006 | 75 | 244 | 0.9 | 6.1 | 0.00 | 0.00 | 0.00 | 57 | 1011.5 |
| 20260504222506 | 75 | 274 | 1.7 | 7.0 | 0.00 | 0.00 | 0.00 | 56 | 1011.6 |
| 20260504222006 | 75 | 216 | 1.7 | 7.0 | 0.00 | 0.00 | 0.00 | 57 | 1011.5 |
| 20260504221506 | 75 | 212 | 0.9 | 4.3 | 0.00 | 0.00 | 0.00 | 56 | 1011.6 |
| 20260504221007 | 75 | 231 | 0.9 | 5.2 | 0.00 | 0.00 | 0.00 | 58 | 1011.7 |
| 20260504220507 | 75 | 223 | 1.7 | 8.7 | 0.00 | 0.00 | 0.00 | 57 | 1011.6 |
| 20260504220007 | 75 | 214 | 2.6 | 8.7 | 0.00 | 0.00 | 0.00 | 55 | 1011.7 |
| 20260504215506 | 76 | 227 | 1.7 | 7.0 | 0.00 | 0.00 | 0.00 | 55 | 1011.8 |
| 20260504215007 | 76 | 220 | 1.7 | 4.3 | 0.00 | 0.00 | 0.00 | 55 | 1011.8 |
| 20260504214507 | 76 | 219 | 0.9 | 7.0 | 0.00 | 0.00 | 0.00 | 54 | 1011.9 |
| 20260504214007 | 76 | 235 | 1.7 | 7.0 | 0.00 | 0.00 | 0.00 | 56 | 1011.9 |
| 20260504213506 | 76 | 213 | 1.7 | 6.1 | 0.00 | 0.00 | 0.00 | 53 | 1011.9 |
| 20260504213006 | 76 | 193 | 1.7 | 6.1 | 0.00 | 0.00 | 0.00 | 55 | 1011.9 |
| 20260504212506 | 76 | 229 | 1.7 | 2.6 | 0.00 | 0.00 | 0.00 | 55 | 1012.1 |
| 20260504212007 | 76 | 222 | 0.9 | 5.2 | 0.00 | 0.00 | 0.00 | 54 | 1012.1 |
| 20260504211507 | 76 | 214 | 1.7 | 5.2 | 0.00 | 0.00 | 0.00 | 57 | 1012.0 |
| 20260504211006 | 76 | 215 | 1.7 | 5.2 | 0.00 | 0.00 | 0.00 | 56 | 1012.1 |
| 20260504210506 | 76 | 248 | 0.9 | 2.6 | 0.00 | 0.00 | 0.00 | 57 | 1012.2 |
| 20260504210007 | 75 | 212 | 0.9 | 2.6 | 0.00 | 0.00 | 0.00 | 56 | 1012.3 |
| 20260504205506 | 74 | 162 | 0.9 | 2.6 | 0.00 | 0.00 | 0.00 | 60 | 1012.3 |
| 20260504205007 | 74 | 305 | 0.9 | 2.6 | 0.00 | 0.00 | 0.00 | 60 | 1012.4 |
| 20260504204508 | 74 | 141 | 0.9 | 6.1 | 0.00 | 0.00 | 0.00 | 59 | 1012.3 |
| 20260504204006 | 74 | 282 | 2.6 | 6.1 | 0.00 | 0.00 | 0.00 | 58 | 1012.4 |
| 20260504203506 | 74 | 249 | 1.7 | 5.2 | 0.00 | 0.00 | 0.00 | 60 | 1012.5 |
| 20260504203007 | 74 | 256 | 0.9 | 2.6 | 0.00 | 0.00 | 0.00 | 60 | 1012.6 |
| 20260504202506 | 73 | 253 | 0.9 | 4.3 | 0.00 | 0.00 | 0.00 | 60 | 1012.7 |
| 20260504202007 | 73 | 348 | 1.7 | 4.3 | 0.00 | 0.00 | 0.00 | 61 | 1012.8 |
| 20260504201506 | 72 | 168 | 0.9 | 2.6 | 0.00 | 0.00 | 0.00 | 61 | 1012.7 |
| 20260504201007 | 72 | 260 | 0.9 | 7.0 | 0.00 | 0.00 | 0.00 | 62 | 1012.8 |
| 20260504200506 | 72 | 183 | 0.9 | 7.0 | 0.00 | 0.00 | 0.00 | 63 | 1013.0 |
| 20260504200006 | 72 | 297 | 0.9 | 7.0 | 0.00 | 0.00 | 0.00 | 64 | 1013.0 |
| 20260504195506 | 71 | 236 | 0.9 | 6.1 | 0.00 | 0.00 | 0.00 | 62 | 1013.1 |
| 20260504195007 | 72 | 254 | 1.7 | 6.1 | 0.00 | 0.00 | 0.00 | 61 | 1013.1 |
| 20260504194506 | 71 | 227 | 0.9 | 2.6 | 0.00 | 0.00 | 0.00 | 63 | 1013.0 |
| 20260504194006 | 71 | 108 | 0.9 | 2.6 | 0.00 | 0.00 | 0.00 | 64 | 1013.1 |
| 20260504193505 | 71 | 253 | 0.9 | 5.2 | 0.00 | 0.00 | 0.00 | 65 | 1013.1 |
| 20260504193006 | 71 | 218 | 1.7 | 5.2 | 0.00 | 0.00 | 0.00 | 63 | 1013.2 |
| 20260504192506 | 70 | 182 | 0.0 | 2.6 | 0.00 | 0.00 | 0.00 | 65 | 1013.2 |
| 20260504192006 | 70 | 177 | 0.9 | 2.6 | 0.00 | 0.00 | 0.00 | 66 | 1013.3 |
| 20260504191506 | 70 | 253 | 1.7 | 2.6 | 0.00 | 0.00 | 0.00 | 63 | 1013.3 |
| 20260504191007 | 70 | 148 | 0.9 | 2.6 | 0.00 | 0.00 | 0.00 | 65 | 1013.3 |
| 20260504190506 | 70 | 256 | 1.7 | 2.6 | 0.00 | 0.00 | 0.00 | 65 | 1013.4 |
| 20260504190007 | 69 | 183 | 0.9 | 4.3 | 0.00 | 0.00 | 0.00 | 65 | 1013.5 |
| 20260504185506 | 69 | 79 | 0.9 | 4.3 | 0.00 | 0.00 | 0.00 | 67 | 1013.4 |
| 20260504185006 | 68 | 213 | 0.9 | 4.3 | 0.00 | 0.00 | 0.00 | 66 | 1013.5 |
| 20260504184507 | 68 | 248 | 0.9 | 4.3 | 0.00 | 0.00 | 0.00 | 65 | 1013.5 |
| 20260504174007 | 64 | 276 | 0.9 | 7.0 | 0.00 | 0.00 | 0.00 | 71 | 1013.7 |
| 20260504173506 | 64 | 231 | 0.9 | 5.2 | 0.00 | 0.00 | 0.00 | 71 | 1013.7 |
| 20260504173006 | 63 | 287 | 0.9 | 7.0 | 0.00 | 0.00 | 0.00 | 71 | 1013.7 |
| 20260504172507 | 63 | 289 | 1.7 | 7.0 | 0.00 | 0.00 | 0.00 | 71 | 1013.8 |
| 20260504172006 | 63 | 205 | 0.9 | 7.0 | 0.00 | 0.00 | 0.00 | 73 | 1013.9 |
| 20260504171506 | 63 | 311 | 0.9 | 7.8 | 0.00 | 0.00 | 0.00 | 73 | 1013.9 |
| 20260504171006 | 62 | 224 | 1.7 | 7.8 | 0.00 | 0.00 | 0.00 | 75 | 1013.9 |
| 20260504170506 | 61 | 101 | 1.7 | 5.2 | 0.00 | 0.00 | 0.00 | 76 | 1013.9 |
| 20260504151006 | 56 | 204 | 1.7 | 5.2 | 0.00 | 0.00 | 0.00 | 84 | 1013.2 |
| 20260504150506 | 56 | 210 | 2.6 | 5.2 | 0.00 | 0.00 | 0.00 | 84 | 1013.1 |
| 20260504141006 | 55 | 214 | 1.7 | 4.3 | 0.00 | 0.00 | 0.00 | 86 | 1012.6 |
| 20260504140505 | 55 | 207 | 1.7 | 5.2 | 0.00 | 0.00 | 0.00 | 86 | 1012.5 |
| 20260504130506 | 53 | 199 | 0.0 | 1.7 | 0.00 | 0.00 | 0.00 | 88 | 1011.5 |
| 20260504110506 | 55 | 245 | 0.0 | 0.9 | 0.00 | 0.00 | 0.00 | 83 | 1010.5 |
| 20260504100506 | 58 | 304 | 0.0 | 1.7 | 0.00 | 0.00 | 0.00 | 77 | 1010.2 |
| 20260504082005 | 58 | 42 | 0.0 | 0.9 | 0.00 | 0.00 | 0.00 | 81 | 1009.5 |
| 20260504081505 | 58 | 42 | 0.0 | 0.9 | 0.00 | 0.00 | 0.00 | 82 | 1009.5 |
| 20260504081006 | 59 | 42 | 0.0 | 0.9 | 0.00 | 0.00 | 0.00 | 82 | 1009.4 |
| 20260504080506 | 59 | 42 | 0.0 | 0.9 | 0.00 | 0.00 | 0.00 | 81 | 1009.4 |